Weather History for Ellensburg, WA

Change the Weather History Date:

Friday, May 24, 2013

  Actual Average (KYKM) Record (KYKM)
Temperature  
Mean Temperature 54 °F 59 °F  
Max Temperature 63 °F 75 °F 94 °F (1999)
Min Temperature 45 °F 44 °F 30 °F (1989)
Degree Days  
Heating Degree Days 12 6  
Month to date heating degree days 221  
Since 1 July heating degree days 5903  
Cooling Degree Days 0 1  
Month to date cooling degree days 13  
Year to date cooling degree days 14  
Growing Degree Days 4 (Base 50)    
Moisture  
Dew Point 41 °F    
Average Humidity 70    
Maximum Humidity 83    
Minimum Humidity 44    
Precipitation  
Precipitation 0.08 in 0.02 in 0.70 in (2013)
Month to date precipitation 0.43  
Year to date precipitation 3.52  
Snow  
Snow 0.00 in 0.00 in 0.00 in (2002)
Month to date snowfall 0.0  
Year to date snowfall 8.6  
Since 1 July snowfall 21.6  
Snow Depth -    
Sea Level Pressure  
Sea Level Pressure 29.97 in    
Wind  
Wind Speed 5 mph (West)    
Max Wind Speed 17 mph    
Max Gust Speed 22 mph    
Visibility 10 miles    
Events Rain    
T = Trace of Precipitation, MM = Missing Value Source: NWS Daily Summary

Daily Weather History Graph

Daily Weather History Graph

Search for Another Location

Airport:

Trip Planner

Search our weather history database for the weather conditions in past years. The results will help you decide how hot, cold, wet, or windy it might be!

Date:

Astronomy

May. 24, 2013 Rise Set
Actual Time 5:16 AM PDT 8:41 PM PDT
Civil Twilight 4:39 AM PDT 9:19 PM PDT
Nautical Twilight 3:49 AM PDT 10:09 PM PDT
Astronomical Twilight 2:45 AM PDT 11:14 PM PDT
Moon 8:28 PM PDT (5/24) 4:56 AM PDT (5/24)
Length of Visible Light 16h 40m
Length of Day
15h 25m
Full, 100% of the Moon is Illuminated
May 24
Full
May 24
Full
May 31
Last Quarter
Jun 8
New
Jun 16
First Quarter

Hourly Weather History & Observations

Time (PDT) Temp. Windchill Dew Point Humidity Pressure Visibility Wind Dir Wind Speed Gust Speed Precip Events Conditions
12:53 AM 48.9 °F - 39.0 °F 69% 29.95 in 10.0 mi North 3.5 mph - N/A   Overcast
1:53 AM 46.9 °F - 39.9 °F 77% 29.96 in 10.0 mi WSW 3.5 mph - N/A   Overcast
2:53 AM 46.9 °F - 39.9 °F 77% 29.95 in 10.0 mi NNW 3.5 mph - 0.00 in   Overcast
3:53 AM 45.0 °F - 39.9 °F 82% 29.95 in 10.0 mi Calm Calm - 0.00 in   Overcast
4:53 AM 46.0 °F - 41.0 °F 83% 29.94 in 10.0 mi Calm Calm - N/A   Overcast
5:53 AM 46.9 °F - 41.0 °F 80% 29.94 in 10.0 mi Calm Calm - N/A   Overcast
6:53 AM 48.0 °F - 41.0 °F 77% 29.94 in 10.0 mi WSW 4.6 mph - 0.00 in   Overcast
7:53 AM 48.0 °F - 41.0 °F 77% 29.95 in 10.0 mi SW 6.9 mph - N/A   Overcast
8:53 AM 46.9 °F - 41.0 °F 80% 29.96 in 9.0 mi South 8.1 mph - 0.00 in Rain Light Rain
9:22 AM 46.4 °F 42.9 °F 41.0 °F 81% 29.96 in 10.0 mi SSE 6.9 mph - 0.01 in Rain Light Rain
9:53 AM 46.9 °F - 39.9 °F 77% 29.97 in 10.0 mi SSE 8.1 mph - 0.01 in Rain Light Rain
10:11 AM 46.4 °F 42.9 °F 41.0 °F 81% 29.96 in 10.0 mi SE 6.9 mph - 0.00 in Rain Light Rain
10:53 AM 46.9 °F - 42.1 °F 83% 29.98 in 7.0 mi ESE 4.6 mph - 0.02 in Rain Light Rain
11:40 AM 48.2 °F - 42.8 °F 82% 29.97 in 10.0 mi ESE 3.5 mph - 0.02 in Rain Light Rain
11:53 AM 50.0 °F - 42.1 °F 74% 29.98 in 9.0 mi Variable 3.5 mph - 0.02 in Rain Light Rain
12:53 PM 53.1 °F - 43.0 °F 69% 29.97 in 10.0 mi Calm Calm - 0.01 in Rain Light Rain
1:53 PM 55.0 °F - 45.0 °F 69% 29.97 in 10.0 mi WSW 4.6 mph - 0.01 in Rain Light Rain
2:53 PM 55.9 °F - 42.1 °F 60% 29.98 in 10.0 mi NW 12.7 mph - 0.00 in Rain Light Rain
3:42 PM 55.4 °F - 42.8 °F 63% 29.98 in 10.0 mi WSW 12.7 mph - 0.01 in   Overcast
3:53 PM 57.0 °F - 42.1 °F 57% 29.98 in 10.0 mi WSW 9.2 mph - 0.01 in   Overcast
4:53 PM 59.0 °F - 41.0 °F 51% 29.97 in 10.0 mi WNW 3.5 mph - 0.00 in   Overcast
5:53 PM 62.1 °F - 39.9 °F 44% 29.96 in 10.0 mi Variable 5.8 mph - N/A   Mostly Cloudy
6:53 PM 57.9 °F - 37.9 °F 47% 29.98 in 10.0 mi WNW 17.3 mph 21.9 mph N/A   Mostly Cloudy
7:53 PM 54.0 °F - 37.9 °F 55% 29.99 in 10.0 mi NW 13.8 mph - N/A   Clear
8:53 PM 51.1 °F - 37.9 °F 61% 30.00 in 10.0 mi NNW 10.4 mph - N/A   Clear
9:53 PM 48.9 °F - 37.9 °F 66% 30.02 in 10.0 mi NNW 9.2 mph - N/A   Partly Cloudy
10:53 PM 45.0 °F 40.6 °F 37.9 °F 76% 30.01 in 10.0 mi NW 8.1 mph - N/A   Clear
11:53 PM 46.0 °F 41.9 °F 37.9 °F 73% 30.00 in 10.0 mi NW 8.1 mph - N/A   Clear